#timestamp,LO_Frequency,Hit,StdDev 
1567022415.9,286047000.8,N
1567022435.7,286046999.8,N
1567022455.6,286047000.4,N
1567022475.4,286046998.5,N
1567022495.2,286046998.1,N
1567022515.1,286047000.5,N
1567022516.0,286047000.5,N
1567022535.8,286046998.1,N
1567022555.6,286046998.3,N
1567022575.5,286046998.2,N
1567022595.3,286046998.5,N
1567022615.2,286046998.8,N
1567022635.9,286046998.7,N
1567022655.7,286046998.8,N
1567022675.6,286047000.4,N
1567022695.4,286047000.1,N
1567022715.2,286047002.1,N
1567022735.1,286047000.1,N
1567022736.0,286047000.1,N
1567022755.8,286047002.4,N
1567022775.7,286046999.9,N
1567022795.5,286047000.7,N
1567022815.3,286046998.3,N
1567022835.2,286046998.2,N
1567022855.0,286047000.5,N
1567022855.9,286047000.5,N
1567022875.7,286047001.0,N
1567022895.6,286046999.8,N
1567022915.4,286046998.7,N
1567022935.3,286046998.5,N
1567022955.1,286046998.8,N
1567022956.0,286046998.8,N
1567022975.8,286046998.8,N
1567022995.7,286046998.9,N
1567023015.5,286046998.7,N
1567023035.3,286046998.2,N
1567023055.2,286046998.3,N
1567023075.0,286046996.9,N
1567023075.9,286046996.9,N
1567023095.8,286046999.3,N
1567023115.6,286046999.4,N
1567023135.4,286046996.6,N
1567023155.3,286046996.6,N
1567023175.1,286046997.4,N
1567023195.9,286046998.0,N
1567023215.7,286046997.2,N
1567023235.5,286046995.0,Y
1567023255.4,286046994.9,P
1567023275.2,286046996.5,N
1567023295.0,286046996.8,N
1567023296.0,286046996.8,N
1567023315.8,286046999.4,N
1567023335.6,286046999.5,N
1567023355.5,286046999.5,N
1567023375.3,286046999.4,N
1567023395.1,286046997.7,N
1567023415.9,286046997.1,N
1567023435.7,286046997.2,N
1567023455.5,286046996.6,N
1567023475.4,286046997.7,N
1567023495.2,286046997.9,N
1567023515.1,286046995.4,Y
1567023516.0,286046995.4,P
1567023535.8,286047000.9,N
1567023555.6,286046998.1,N
1567023575.5,286046998.5,N
1567023595.3,286046998.1,N
1567023615.1,286046996.7,N
1567023635.9,286046996.8,N
1567023655.7,286046997.0,N
1567023675.6,286046997.8,N
1567023695.4,286046999.1,N
1567023715.2,286046996.5,N
1567023735.1,286046997.4,N
1567023736.0,286046997.4,N
1567023755.8,286046996.6,N
1567023775.6,286046999.5,N
1567023795.5,286046997.2,N
1567023815.3,286046999.6,N
1567023835.2,286046998.0,N
1567023855.9,286046997.8,N
1567023875.7,286046997.6,N
1567023895.6,286046997.9,N
1567023915.4,286046997.7,N
1567023935.2,286046994.9,Y
1567023955.1,286046998.9,P
1567023956.0,286046998.9,N
1567023975.8,286047001.2,N
1567023995.7,286046998.2,N
1567024015.5,286046998.5,N
1567024035.3,286046998.4,N
1567024055.2,286047000.7,N
1567024075.0,286046999.9,N
1567024075.9,286046999.9,N
1567024095.7,286046998.3,N
1567024115.6,286046998.6,N
1567024135.4,286046998.3,N
1567024155.3,286046998.7,N
1567024175.1,286046998.2,N
1567024176.0,286046998.2,N
1567024195.8,286047000.9,N
1567024215.7,286047001.1,N
1567024235.5,286047001.2,N
1567024255.3,286046999.3,N
1567024275.2,286046999.0,N
1567024295.0,286046999.4,N
1567024295.9,286046999.4,N
1567024315.8,286046998.3,N
1567024335.6,286046998.5,N
1567024355.4,286046999.3,N
1567024375.3,286046999.0,N
1567024395.1,286046998.5,N
1567024415.8,286046999.3,N
1567024435.7,286046998.8,N
1567024455.5,286046998.6,N
1567024475.4,286046998.5,N
1567024495.2,286046998.6,N
1567024515.0,286047000.8,N
1567024515.9,286047000.8,N
1567024535.8,286046999.6,N
1567024555.6,286046996.6,Y
1567024575.4,286046998.8,P
1567024595.3,286046999.4,N
1567024615.1,286046998.6,P
1567024635.9,286046998.6,Y
1567024655.7,286047000.3,P
1567024675.5,286047000.4,N
1567024695.4,286047000.3,N
1567024715.2,286047000.0,N
1567024735.1,286047002.6,Y
1567024736.0,286047002.6,P
1567024755.8,286047002.8,N
1567024775.6,286046999.8,N
1567024795.5,286047000.1,N
1567024815.3,286047002.1,N
1567024835.1,286047000.1,N
1567024855.9,286047000.6,N
1567024875.7,286047000.2,N
1567024895.6,286047002.7,N
1567024915.4,286046999.8,N
1567024935.2,286046999.8,N
1567024955.1,286046999.8,N
1567024956.0,286046999.8,N
1567024975.8,286047001.9,N
1567024995.7,286047004.2,Y
1567025015.5,286047002.2,P
1567025035.3,286047002.5,P
1567025055.2,286046999.8,N
1567025075.0,286047002.0,N
1567025075.9,286047002.0,N
1567025095.7,286047002.7,N
1567025115.6,286047000.0,N
1567025135.4,286047004.1,Y
1567025155.3,286047000.6,P
1567025175.1,286046998.2,P
1567025176.0,286046998.2,N
1567025195.8,286046998.1,N
1567025215.7,286046998.3,N
1567025235.5,286047000.8,N
1567025255.3,286046998.5,N
1567025275.2,286047000.7,N
1567025295.0,286047000.9,N
1567025295.9,286047000.9,N
1567025315.8,286046998.8,N
1567025335.6,286046998.8,N
1567025355.4,286046999.5,N
1567025375.3,286046999.3,N
1567025395.1,286046998.7,N
1567025415.8,286047001.1,N
1567025435.7,286046998.9,N
1567025455.5,286047000.4,N
1567025475.4,286046999.8,N
1567025495.2,286047002.7,N
1567025515.0,286046999.7,N
1567025515.9,286046999.7,N
1567025535.8,286047002.8,N
1567025555.6,286047002.7,N
1567025575.5,286047001.4,N
1567025595.3,286047002.4,N
1567025615.1,286047000.6,N
1567025635.9,286047002.8,N
1567025655.7,286047001.3,N
1567025675.5,286047002.0,N
1567025695.4,286047002.3,N
1567025715.2,286047001.6,N
1567025735.1,286047002.8,N
1567025736.0,286047002.8,N
1567025755.8,286046999.9,N
1567025775.6,286047001.5,N
1567025795.5,286047001.9,N
1567025815.3,286047002.3,N
1567025835.1,286047002.6,N
1567025855.9,286047001.7,N
1567025875.7,286047002.8,N
1567025895.6,286047001.8,N
1567025915.4,286047002.6,N
1567025935.2,286047002.0,N
1567025955.1,286047004.3,Y
1567025956.0,286047004.3,P
1567025975.8,286047000.4,N
1567025995.6,286047000.4,N
